Header for Extended Forecast Station List Page

Search by: ID | Name | Date | Parm | Value | Avg | % Avg
Sort by: ID | Name | Date | Parm | Value | Avg | % Avg

Enter search or view all records.

Click on id for station plot
#IDNameDateParmValueAvg% Avg
0HWRI1BIG LOST-AT HOWELL RANCH NEAR CHILLY05-31-2016DISCHARGE (KAF)6512751
1MACI1BIG LOST-MACKAY RESERVOIR NEAR MACKAY05-31-2016INFLOW (KAF)6712156
2HALI1BIG WOOD-AT HAILEY05-31-2016DISCHARGE (KAF)7815849
3MAGI1BIG WOOD-MAGIC DAM05-31-2016INFLOW (KAF)3310730
4BITM8BITTERROOT-NEAR MISSOULA05-31-2016DISCHARGE (KAF)39978651
5BONM8BLACKFOOT-NEAR BONNER05-31-2016DISCHARGE (KAF)25549552
6BIGI1BOISE-AT GLENWOOD BRIDGE05-31-2016DISCHARGE (KAF)345287120
7LUCI1BOISE-LUCKY PEAK DAM05-31-2016INFLOW (KAF)734MM
8PARI1BOISE-NEAR PARMA05-31-2016DISCHARGE (KAF)336264127
9HOTI1BRUNEAU-NEAR HOT SPRINGS05-31-2016DISCHARGE (KAF)637584
10BULO3BULLY CREEK-BULLY CREEK DAM05-31-2016INFLOW (KAF)M0M
11BUDW1BUMPING-BUMPING LAKE DAM05-31-2016INFLOW (KAF)216731
12CHDW1CHELAN-LAKE CHELAN DAM05-31-2016INFLOW (KAF)35770351
13ABOM8CLARK FORK-ABOVE MISSOULA05-31-2016DISCHARGE (KAF)47390652
14DLGM8CLARK FORK-AT DEER LODGE05-31-2016DISCHARGE (KAF)355464
15SRGM8CLARK FORK-AT ST REGIS05-31-2016DISCHARGE (KAF)1170223652
16BELM8CLARK FORK-BELOW MISSOULA05-31-2016DISCHARGE (KAF)874172451
17CABI1CLARK FORK-CABINET GORGE DAM05-31-2016INFLOW (KAF)4128641764
18NOXM8CLARK FORK-NOXON RAPIDS DAM05-31-2016INFLOW (KAF)3762598263
19DRMM8CLARK FORK-NR DRUMMOND05-31-2016DISCHARGE (KAF)85MM
20CLUW1CLE ELUM-CLE ELUM LAKE05-31-2016INFLOW (KAF)4620822
21ORFI1CLEARWATER-AT OROFINO05-31-2016DISCHARGE (KAF)995213147
22SPDI1CLEARWATER-AT SPALDING05-31-2016DISCHARGE (KAF)2745328284
23COEI1COEUR D ALENE-COEUR D ALENE LAKE05-31-2016INFLOW (KAF)38471554
24CIBW1COLUMBIA-AT INTL BOUNDARY05-31-2016DISCHARGE (KAF)22976MM
25BONO3COLUMBIA-BONNEVILLE DAM05-31-2016INFLOW (KAF)33927MM
26CHJW1COLUMBIA-CHIEF JOSEPH DAM05-31-2016INFLOW (KAF)218422747679
27GCDW1COLUMBIA-GRAND COULEE DAM05-31-2016INFLOW (KAF)240003573567
28JDAO3COLUMBIA-JOHN DAY DAM05-31-2016INFLOW (KAF)330405036266
29MCDW1COLUMBIA-MCNARY DAM05-31-2016INFLOW (KAF)323944950765
30PRWW1COLUMBIA-PRIEST RAPIDS DAM05-31-2016INFLOW (KAF)235673671964
31RRHW1COLUMBIA-ROCKY REACH DAM05-31-2016INFLOW (KAF)230382989077
32TDAO3COLUMBIA-THE DALLES DAM05-31-2016INFLOW (KAF)333844548573
33WANW1COLUMBIA-WANAPUM DAM05-31-2016INFLOW (KAF)235613598565
34WELW1COLUMBIA-WELLS DAM05-31-2016INFLOW (KAF)226022923677
35DEDI1DEADWOOD-NEAR LOWMAN05-31-2016INFLOW (KAF)397751
36MODO3DESCHUTES-AT MOODY NR BIGGS05-31-2016DISCHARGE (KAF)1054112394
37ARDW1ENTIAT-NEAR ARDENVOIR05-31-2016DISCHARGE (KAF)7913359
38CHEI1FALL RIVER-NEAR CHESTER05-31-2016DISCHARGE (KAF)7718242
39CFMM8FLATHEAD-AT COLUMBIA FALLS05-31-2016DISCHARGE (KAF)2064276475
40KERM8FLATHEAD-KERR DAM05-31-2016INFLOW (KAF)2400341670
41TRYO3GRANDE RONDE-TROY05-31-2016DISCHARGE (KAF)26354349
42REXI1HENRYS FORK-AT REXBURG05-31-2016DISCHARGE (KAF)23749348
43ANTI1HENRYS FORK-AT ST. ANTHONY05-31-2016DISCHARGE (KAF)23641856
44IPDI1HENRYS FORK-ISLAND PARK DAM05-31-2016INFLOW (KAF)11017663
45HODO3HOOD-NEAR TUCKER BRIDGE05-31-2016DISCHARGE (KAF)9011677
46SERO3JOHN DAY-AT SERVICE CK05-31-2016DISCHARGE (KAF)7219337
47KADW1KACHESS-KACHESS DAM05-31-2016INFLOW (KAF)144332
48LAUW1KETTLE-AT LAURIER05-31-2016DISCHARGE (KAF)27980335
49PITW1KLICKITAT-NEAR PITT05-31-2016DISCHARGE (KAF)23627885
50BFEI1KOOTENAI-AT BONNERS FERRY05-31-2016STAGE (FT)MMM
51LEOI1KOOTENAI-AT LEONIA05-31-2016DISCHARGE (KAF)2067413950
52LYDM8KOOTENAI-LIBBY DAM05-31-2016INFLOW (KAF)2623460657
53LWRI1LITTLE WOOD-LITTLE WOOD DAM05-31-2016INFLOW (KAF)143737
54BERO3MALHEUR-AGENCY VALLEY DAM05-31-2016INFLOW (KAF)111291
55VALO3MALHEUR-NEAR VALE05-31-2016DISCHARGE (KAF)1314
56WRMO3MALHEUR-WARM SPRINGS DAM05-31-2016INFLOW (KAF)3478
57MYKO3MCKAY CREEK-NEAR PILOT ROCK05-31-2016DISCHARGE (KAF)0125
58PATW1METHOW-NEAR PATEROS05-31-2016DISCHARGE (KAF)27652253
59WGCM8MF FLATHEAD-NEAR WEST GLACIER05-31-2016DISCHARGE (KAF)63597665
60CLFW1NACHES-NEAR CLIFFDEL05-31-2016DISCHARGE (KAF)10120250
61NACW1NACHES-NEAR NACHES05-31-2016DISCHARGE (KAF)25130582
62DWRI1NF CLEARWATER-DWORSHAK DAM05-31-2016INFLOW (KAF)585111752
63FCFM8NF FLATHEAD-NEAR COLUMBIA FALLS05-31-2016DISCHARGE (KAF)654102864
64MONO3NF JOHN DAY-AT MONUMENT05-31-2016DISCHARGE (KAF)3813827
65CSDI1NF PAYETTE-CASCADE DAM05-31-2016INFLOW (KAF)11423748
66TONW1OKANOGAN-NEAR TONASKET05-31-2016DISCHARGE (KAF)46393450
67OWYO3OWYHEE-OWYHEE DAM05-31-2016INFLOW (KAF)757797
68EMMI1PAYETTE-NEAR EMMETT05-31-2016DISCHARGE (KAF)44575559
69ALFW1PEND OREILLE-ALBENI FALLS DAM05-31-2016INFLOW (KAF)4535706264
70HOPI1PEND OREILLE-PEND OREILLE LAKE NR HOPE05-31-2016LAKE ELEVATION (FT)MMM
71PIHI1PORTNEUF-AT POCATELLO05-31-2016DISCHARGE (KAF)132848
72PRTI1PRIEST-NEAR PRIEST RIVER05-31-2016DISCHARGE (KAF)32337486
73RCCM8ROCK CREEK-NEAR CLINTON05-31-2016DISCHARGE (KAF)11318362
74WHBI1SALMON-AT WHITEBIRD05-31-2016DISCHARGE (KAF)1991381052
75ARAI1SF BOISE-ANDERSON RANCH DAM05-31-2016INFLOW (KAF)11724049
76HHWM8SF FLATHEAD-HUNGRY HORSE DAM05-31-2016INFLOW (KAF)706107166
77PLDI1SF SNAKE-PALISADES DAM05-31-2016INFLOW (KAF)1844252773
78SIFI1SNAKE-AB EAGLE ROCK NR IDAHO FALLS05-31-2016DISCHARGE (KAF)1525195878
79AFRI1SNAKE-AMERICAN FALLS RESERVOIR05-31-2016INFLOW (KAF)1196162374
80SNAI1SNAKE-AT BLACKFOOT05-31-2016DISCHARGE (KAF)702109164
81MILI1SNAKE-AT MILNER05-31-2016DISCHARGE (KAF)17697183
82WEII1SNAKE-AT WEISER05-31-2016DISCHARGE (KAF)2692333181
83SWAI1SNAKE-BELOW SWAN FALLS05-31-2016DISCHARGE (KAF)1638198083
84BRNI1SNAKE-BROWNLEE DAM05-31-2016INFLOW (KAF)2887350282
85IHDW1SNAKE-ICE HARBOR DAM05-31-2016INFLOW (KAF)82001162171
86JLKW4SNAKE-JACKSON LAKE AT DAM05-31-2016INFLOW (KAF)28156750
87LGSW1SNAKE-LITTLE GOOSE DAM05-31-2016INFLOW (KAF)82061166170
88LGDW1SNAKE-LOWER GRANITE DAM05-31-2016INFLOW (KAF)82141164271
89LMNW1SNAKE-LOWER MONUMENTAL DAM05-31-2016INFLOW (KAF)82051167170
90ALPW4SNAKE-NEAR ALPINE05-31-2016DISCHARGE (KAF)1406188075
91ANAW1SNAKE-NEAR ANATONE05-31-2016DISCHARGE (KAF)5469828466
92BFTI1SNAKE-NEAR BLACKFOOT05-31-2016DISCHARGE (KAF)66799367
93HEII1SNAKE-NEAR HEISE05-31-2016DISCHARGE (KAF)2589274294
94JKSW4SNAKE-NEAR JACKSON05-31-2016DISCHARGE (KAF)1187153677
95SHYI1SNAKE-NEAR SHELLEY05-31-2016DISCHARGE (KAF)1297161180
96LLKW1SPOKANE-AT LONGLAKE05-31-2016INFLOW (KAF)676115159
97SPOW1SPOKANE-AT SPOKANE05-31-2016DISCHARGE (KAF)521MM
98SJMI1ST JOE-AT ST MARIES05-31-2016STAGE (FT)MMM
99SATI1ST MARIES-NEAR SANTA05-31-2016DISCHARGE (KAF)183849
100STRM8ST. REGIS-NEAR ST. REGIS05-31-2016DISCHARGE (KAF)479650
101TNAW1TEANAWAY-BELOW FORKS05-31-2016DISCHARGE (KAF)113036
102TEAI1TETON-NEAR ST. ANTHONY05-31-2016DISCHARGE (KAF)18928566
103RILW1TIETON-RIMROCK LAKE NEAR RIMROCK05-31-2016INFLOW (KAF)9113369
104PDTO3UMATILLA-AT PENDLETON05-31-2016DISCHARGE (KAF)102444
105GIBO3UMATILLA-NEAR GIBBON05-31-2016DISCHARGE (KAF)141977
106UMAO3UMATILLA-NEAR UMATILLA05-31-2016DISCHARGE (KAF)253836
107TCHW1WALLA WALLA-NEAR TOUCHET05-31-2016DISCHARGE (KAF)71641
108WSRI1WEISER-NEAR WEISER05-31-2016DISCHARGE (KAF)6612453
109PESW1WENATCHEE-AT PESHASTIN05-31-2016DISCHARGE (KAF)50689457
110UNDW1WHITE SALMON-NEAR UNDERWOOD05-31-2016DISCHARGE (KAF)19420694
111RIDI1WILLOW CREEK-RIRIE DAM05-31-2016INFLOW (KAF)71167
112EASW1YAKIMA-AT EASTON05-31-2016DISCHARGE (KAF)9582116
113KIOW1YAKIMA-AT KIONA05-31-2016DISCHARGE (KAF)50352995
114UMTW1YAKIMA-AT UMTANUM05-31-2016DISCHARGE (KAF)72975996
115KEDW1YAKIMA-KEECHELUS LAKE05-31-2016INFLOW (KAF)195038
116PARW1YAKIMA-NEAR PARKER05-31-2016DISCHARGE (KAF)18020190